Showing default

OPS 9333 (IDSCS 18), 2864

Orbit data source: Space-Track

OPS 9333 (IDSCS 18), 2864 is a payload satellite owned by SAMSO (US) in GEO that was launched on Sat, 01 Jul 1967 UTC via a TITAN IIIC launch vehicle from the Air Force Eastern Test Range (AFETR). Payload-class satellites include a variety of spacecraft equipped with specific instruments for various scientific and technological missions. These include communications satellites like Starlink; space stations such as the ISS; scientific satellites like the Hubble; Earth observation satellites from companies like Planet Labs, Umbra, and HawkEye 360; GPS; miniature CubeSats for education and research; and military/defense satellites.

Not visible in the next 10 days
Identifier
2864, 1967-066C
Orbit
GEO
Last TLE update
10 hours ago
Origin
Manufacturer
Philco-Ford WDL
Mission
Non-operational Defense Communications
Bus & Motor
IDCSP, Unknown motor
Mass
45 kg wet, 45 kg dry
Launch date (UTC)
1967-07-01 (58 years ago)
Launch vehicle
TITAN IIIC
Launch site
Air Force Eastern Test Range (AFETR)
Object type
Payload
Rocket body
Debris
Shape & HBR
Poly, 0.9 m
Radar Cross Section
0.926 m², Medium (>0.1 m² and < 1m²)

Expand to show TLE details & history

TLE from 10 hours ago
0 OPS 9333 (IDSCS 18)
1 02864U 67066C   25128.86969422 -.00000096  00000-0  00000-0 0  9995
2 02864   1.8697 110.2586 0058811 214.0581 315.4711  1.09786875127104
Epoch: 2025-05-08T20:52Z
Definitive object data (Epoch: 2025-05-08T20:52:21.58Z)
Latitude
0.35984°
Longitude
99.29371°
Altitude
33,148.399 km
Speed
3.182 km/s
True Right ascension
18h 37m 16s
True Declination
0° 21' 34"
Sunlit
Object was in daylight at TLE epoch
Visualization TLE readout
Latitude
-0.75226°
Longitude
-93.47823°
Altitude
33,435.924 km
Speed
3.159 km/s
Apparent Right ascension
05h 29m 41s
Apparent Declination
-6° 00' 08"
Sunlit
Object is in daylight
Visualization observer readout
Local Sidereal Time
15:06:43
Azimuth
307.001° NW
Elevation
-43.332°
Doppler factor
1
Orbital elements
Apogee altitude
33,548.304 km
Perigee altitude
33,081.427 km
Semi-major axis
39,693.002 km
Eccentricity
0.0058811
Inclination
1.8697°
RAAN
110.2586°
Arg. of periapsis
214.0581°
True anomaly
314.99601°
Mean anomaly
315.4711°
Eccentric anomaly
315.23381°
Mean motion
0.27446 °/min
BSTAR
Unknown
Orbital period
1311.69 mins
Loading historical data...
2864 neighbors
Loading maneuver chart data...
Loading SW <> Apogee altitude chart data...
Loading historical data...
Loading historical data...
Loading historical data...
Loading historical data...
Loading historical data...
Loading historical data...
Loading historical data...

OPS 9333 (IDSCS 18) Visibility forecast

Observer location: undefined°, undefined°

OPS 9333 (IDSCS 18) is not visible in the next 10 days
Span
Click to sort rows by Start time (UTC) header in descending order
Start Az.
Max El. time (UTC)
Max El. Az.
Max El.
End time (UTC)
End Az.
|